This demonstration page uses our WeatherBlox Daily Observations layout. Learn more.

Left ArrowRight Arrow

38.83388, -104.82136

Hourly Observations for April 8, 2017

Temp ( °F °C ) Dew Point ( °F °C ) Humidity (%) Winds ( mph kmh ) Pressure ( in mb ) Visibility ( mi km ) Precip ( " mm )
12:58 am 00:58 Cloudy 55 13 24 -4.3 30 30 NW 6 9 29.37 995 10 16 0.00 0.00
1:58 am 01:58 Mostly Cloudy 53 11.6 24 -4.4 33 33 WSW 5 7 29.36 994 10 16 0.00 0.00
2:58 am 02:58 Cloudy 56 13.3 21 -6.3 25 25 SSW 9 15 29.36 994 10 16 0.00 0.00
3:58 am 03:58 Cloudy 55 12.7 21 -6.1 27 27 SSE 13 20 29.34 993 10 16 0.00 0.00
4:58 am 04:58 Mostly Cloudy 55 12.8 20 -6.5 26 26 SW 13 20 29.34 994 10 16 0.00 0.00
5:58 am 05:58 Clear 56 13.2 20 -6.7 25 25 SW 8 13 29.33 993 10 16 0.00 0.00
6:58 am 06:58 Sunny 52 10.9 21 -6.1 30 30 SSE 6 9 29.36 994 10 16 0.00 0.00
7:58 am 07:58 Sunny 55 12.9 22 -5.8 27 27 SSW 13 20 29.36 994 10 16 0.00 0.00
8:58 am 08:58 Sunny 55 12.8 23 -4.8 29 29 SSW 9 15 29.37 995 10 16 0.00 0.00
9:50 am 09:50 Sunny 57 14 23 -5 27 27 SSW 12 19 29.50 999 10 16 0.00 0.00
9:58 am 09:58 Sunny 58 14.4 25 -4.1 28 28 S 15 24 29.36 994 10 16 0.00 0.00
10:58 am 10:58 Sunny 63 17 26 -3.1 25 25 ESE 9 15 29.33 993 10 16 0.00 0.00
11:11 am 11:11 Mostly Sunny 63 17 27 -3 25 25 SSE 14 22 29.44 997 10 16 0.00 0.00
11:56 am 11:56 Partly Cloudy 63 17 23 -5 22 22 S 16 26 29.44 997 10 16 0.00 0.00
11:58 am 11:58 Partly Cloudy 63 17.1 23 -4.8 22 22 S 17 28 29.32 993 10 16 0.00 0.00
12:42 pm 12:42 Mostly Sunny 66 19 21 -6 18 18 SE 18 30 29.35 994 10 16 0.00 0.00
12:58 pm 12:58 Mostly Sunny 67 19.2 22 -5.5 18 18 S 21 33 29.27 991 10 16 0.00 0.00
1:14 pm 13:14 Mostly Sunny 66 19 21 -6 18 18 SE 13 20 29.35 994 10 16 0.00 0.00
1:20 pm 13:20 Mostly Sunny 66 19 23 -5 19 19 ESE 16 26 29.32 993 10 16 0.00 0.00
1:58 pm 13:58 Sunny 65 18.4 23 -5 20 20 SE 12 19 29.27 991 10 16 0.00 0.00
2:12 pm 14:12 Sunny 66 19 23 -5 19 19 S 17 28 29.32 993 10 16 0.00 0.00
2:58 pm 14:58 Mostly Cloudy 66 18.7 23 -5.1 20 20 SSE 18 30 29.23 990 10 16 0.00 0.00
3:12 pm 15:12 Mostly Cloudy 66 19 23 -5 19 19 S 20 31 29.26 991 10 16 0.00 0.00
3:22 pm 15:22 Partly Cloudy 66 19 23 -5 19 19 SE 16 26 29.26 991 10 16 0.00 0.00
3:26 pm 15:26 Partly Cloudy 66 19 23 -5 19 19 S 15 24 29.26 991 10 16 0.00 0.00
3:58 pm 15:58 Mostly Cloudy 67 19.6 23 -5.1 18 18 SSE 23 37 29.19 989 10 16 0.00 0.00
4:32 pm 16:32 Mostly Cloudy 68 20 21 -6 17 17 SSE 14 22 29.21 989 10 16 0.00 0.00
4:49 pm 16:49 Partly Cloudy 66 19 19 -7 17 17 S 15 24 29.23 990 10 16 0.00 0.00
4:58 pm 16:58 Partly Cloudy 67 19.2 19 -7 16 16 SSE 15 24 29.18 988 10 16 0.00 0.00
5:39 pm 17:39 Mostly Cloudy 64 18 18 -8 16 16 SSW 13 20 29.29 992 10 16 0.00 0.00
5:58 pm 17:58 Mostly Cloudy 64 17.7 20 -6.5 19 19 ESE 3 6 29.21 989 10 16 0.00 0.00
6:58 pm 18:58 Partly Cloudy 62 16.4 22 -5.7 22 22 SSE 7 11 29.23 990 10 16 0.00 0.00
7:58 pm 19:58 Clear 56 13.6 22 -5.4 27 27 W 5 7 29.26 991 10 16 0.00 0.00
8:58 pm 20:58 Clear 55 12.6 18 -8 23 23 S 6 9 29.28 992 10 16 0.00 0.00
9:28 pm 21:28 Clear 57 14 14 -10 18 18 SE 14 22 29.44 997 10 16 0.00 0.00
9:58 pm 21:58 Clear 57 13.8 14 -9.8 19 19 SSE 17 28 29.26 991 10 16 0.00 0.00
10:37 pm 22:37 Clear 55 13 18 -8 23 23 S 12 19 29.41 996 10 16 0.00 0.00
10:58 pm 22:58 Clear 55 12.6 18 -7.9 23 23 SSE 14 22 29.23 990 10 16 0.00 0.00
11:58 pm 23:58 Clear 53 11.4 19 -7.1 27 27 S 6 9 29.23 990 10 16 0.00 0.00

Powered by AerisWeather